[[{"header":{"parameterUnit":"m.s-1","parameterCategory":1,"la1":30.2991,"la2":30.254,"lo1":-89.0895,"lo2":-89.0444,"dy":0.0017,"dx":0.0017,"nx":28,"ny":28,"refTime":"2024-02-14T09:00:00:Z","depth":0,"parameterNumber":2,"parameterNumberName":"U-component_of_WINDS"},"data":[0,0,0,0,0,0,0,0,0,0,0,0,0,0,0,0,0,0,0,0,0,0,0,0,0,0,0,0,0,0,0,0,0,0,0,0,0,0,0,0,0,0,0,0,0,0,0,0,0,0,0,0,0,0,0,0,0,0,-0.1097,-0.1098,0,-0.1203,-0.1205,-0.1206,-0.1243,-0.1242,-0.1242,-0.1241,-0.1356,-0.1359,-0.1363,0,0,0,0,0,0,0,0,0,0,0,0,0,-0.0928,-0.093,-0.1096,-0.1098,-0.1099,-0.1203,-0.1205,-0.1206,-0.1243,-0.1242,-0.1242,-0.1241,-0.1355,-0.1359,-0.1363,0,0,0,0,0,0,0,0,0,0,0,0,0,-0.1014,-0.0931,-0.1096,-0.113,-0.1134,-0.1203,-0.1205,-0.1207,-0.1243,-0.1242,-0.1242,-0.1241,-0.1353,-0.1358,-0.1363,-0.1408,0,0,-0.1379,-0.1382,0,0,0,0,0,0,0,0,-0.1009,-0.1021,-0.1124,-0.1128,-0.1132,-0.1209,-0.1187,-0.1274,-0.1243,-0.1202,-0.1241,-0.1241,-0.1308,-0.1317,-0.1338,-0.1414,-0.1419,-0.138,-0.1383,-0.1385,-0.1387,0,0,0,0,0,0,0,-0.1003,-0.1016,-0.1139,-0.1125,-0.113,-0.1141,-0.1152,-0.1204,-0.1257,-0.1205,-0.1208,-0.122,-0.131,-0.1333,-0.1341,-0.142,-0.138,-0.1384,-0.1387,-0.1389,-0.1537,-0.1538,0,0,0,0,0,0,-0.0991,-0.1011,-0.1136,-0.1142,-0.1068,-0.1144,-0.1157,-0.1185,-0.1257,-0.1267,-0.122,-0.1221,-0.1325,-0.1335,-0.1345,-0.1402,-0.1385,-0.139,-0.1393,-0.1536,-0.1537,-0.1538,0,0,0,0,0,0,-0.0987,-0.1002,-0.1131,-0.1077,-0.1095,-0.1148,-0.1179,-0.1188,-0.1211,-0.1268,-0.1278,-0.1234,-0.1325,-0.1338,-0.1392,-0.1407,-0.1392,-0.1397,-0.1535,-0.1537,-0.1538,-0.1516,0,0,0,0,0,0,-0.0982,-0.1,-0.1017,-0.1077,-0.1097,-0.1175,-0.118,-0.119,-0.1219,-0.1221,-0.1284,-0.1293,-0.1325,-0.1384,-0.1397,-0.1413,-0.1401,-0.1534,-0.1536,-0.1537,-0.1516,-0.1516,-0.1517,0,0,0,0,0,-0.0976,-0.1008,-0.1018,-0.1033,-0.1119,-0.1176,-0.1187,-0.1222,-0.122,-0.1238,-0.1274,-0.1291,-0.1403,-0.1389,-0.1404,-0.1422,-0.1534,-0.1535,-0.1537,-0.1515,-0.1516,-0.1517,0,0,0,0,0,0,-0.0951,-0.1017,-0.1028,-0.108,-0.1122,-0.1182,-0.1205,-0.1221,-0.1266,-0.1266,-0.1308,-0.1322,-0.1372,-0.1403,-0.1387,-0.1469,-0.1469,-0.1474,-0.1447,-0.1449,-0.1449,-0.1441,-0.1405,0,0,0,0,0,-0.095,-0.0989,-0.1046,-0.1086,-0.1106,-0.1152,-0.1178,-0.12,-0.1246,-0.1264,-0.1305,-0.1349,-0.1394,-0.1423,-0.1468,-0.152,-0.1534,-0.154,-0.154,-0.1541,-0.1545,-0.1574,-0.1577,-0.1544,-0.1544,-0.1544,0,0,-0.0952,-0.0993,-0.1015,-0.1082,-0.1117,-0.1157,-0.1167,-0.1209,-0.1239,-0.1271,-0.1324,-0.1355,-0.1407,-0.146,-0.1485,-0.1487,-0.1556,-0.1543,-0.1543,-0.1547,-0.1576,-0.1579,-0.1581,-0.1545,-0.1545,-0.1545,0,0,-0.0974,-0.1009,-0.1046,-0.108,-0.1132,-0.1162,-0.117,-0.1227,-0.1249,-0.1302,-0.1326,-0.1363,-0.144,-0.1476,-0.1504,-0.1538,-0.1555,-0.1552,-0.1555,-0.1583,-0.1585,-0.1588,-0.16,-0.1603,-0.1555,-0.1555,-0.1555,0,-0.097,-0.103,-0.1064,-0.1104,-0.1133,-0.1161,-0.1199,-0.1231,-0.1295,-0.1315,-0.1315,-0.1411,-0.1448,-0.1509,-0.1517,-0.1539,-0.1551,-0.1545,-0.1582,-0.1585,-0.1588,-0.1599,-0.1604,-0.1554,-0.1555,-0.1555,-0.1555,0,-0.1021,-0.1063,-0.1087,-0.1145,-0.1177,-0.1216,-0.1256,-0.1285,-0.1304,-0.1334,-0.1387,-0.1433,-0.1486,-0.1503,-0.1523,-0.1566,-0.1566,-0.1573,-0.1574,-0.1589,-0.1601,-0.1606,-0.1553,-0.1554,-0.1554,-0.1554,0,0,-0.1032,-0.1107,-0.1116,-0.1142,-0.12,-0.1233,-0.1274,-0.1324,-0.1347,-0.139,-0.1425,-0.1489,-0.1496,-0.1528,-0.1552,-0.1577,-0.16,-0.1582,-0.1584,-0.1583,-0.165,-0.1643,-0.1648,-0.1611,-0.1612,-0.1613,-0.1645,0,-0.1062,-0.1134,-0.1164,-0.1222,-0.1261,-0.1287,-0.1322,-0.1362,-0.1391,-0.1428,-0.1461,-0.1505,-0.1511,-0.153,-0.1555,-0.1591,-0.1614,-0.159,-0.1645,-0.1646,-0.1631,-0.1654,-0.1648,-0.1676,-0.165,-0.1651,-0.1651,0,-0.1107,-0.1147,-0.1208,-0.126,-0.1278,-0.1308,-0.1357,-0.1392,-0.1438,-0.1457,-0.1491,-0.1514,-0.1558,-0.1556,-0.1617,-0.16,-0.1624,-0.1645,-0.1647,-0.1654,-0.165,-0.1661,-0.1686,-0.169,-0.1659,-0.1658,-0.1658,0,-0.1108,-0.1178,-0.1223,-0.1245,-0.1307,-0.1328,-0.1355,-0.14,-0.1428,-0.1471,-0.1489,-0.1537,-0.1563,-0.16,-0.1635,-0.163,-0.1693,-0.1693,-0.1711,-0.171,-0.1723,-0.1722,-0.1752,-0.1739,-0.1739,-0.1739,-0.1739,0,-0.1138,-0.1174,-0.1224,-0.1252,-0.1293,-0.1329,-0.1369,-0.1398,-0.1437,-0.1472,-0.1499,-0.1531,-0.1575,-0.1614,-0.1642,-0.1688,-0.17,-0.1717,-0.1724,-0.1715,-0.1712,-0.1731,-0.173,-0.174,-0.174,-0.1739,-0.1739,0,-0.1146,-0.1181,-0.1232,-0.1286,-0.13,-0.1328,-0.1374,-0.1403,-0.1432,-0.1475,-0.1488,-0.1534,-0.158,-0.1619,-0.168,-0.1699,-0.1747,-0.1755,-0.173,-0.1734,-0.1749,-0.1747,-0.1793,-0.18,-0.1782,-0.1782,-0.1782,0,-0.1163,-0.1191,-0.1247,-0.1271,-0.1297,-0.1336,-0.1364,-0.1399,-0.1428,-0.1481,-0.1503,-0.155,-0.159,-0.1662,-0.1702,-0.1749,-0.1759,-0.1771,-0.1766,-0.1755,-0.1758,-0.1756,-0.1759,-0.1772,-0.1772,-0.1772,-0.1772,0,-0.1189,-0.1205,-0.1243,-0.1287,-0.1319,-0.1356,-0.1393,-0.1412,-0.1455,-0.1485,-0.1531,-0.1562,-0.1623,-0.1669,-0.172,-0.1749,-0.1768,-0.1773,-0.1779,-0.177,-0.1754,-0.1762,-0.1731,-0.1772,-0.1772,-0.1772,-0.1772,-0.1772,-0.1203,-0.1228,-0.1271,-0.1312,-0.1344,-0.1378,-0.1407,-0.1438,-0.1477,-0.1528,-0.1547,-0.1594,-0.1638,-0.1708,-0.1737,-0.1775,-0.1777,-0.1787,-0.1789,-0.1791,-0.1789,-0.1748,-0.1784,-0.1784,-0.1784,-0.1785,-0.1785,0,-0.123,-0.1258,-0.1295,-0.1346,-0.1379,-0.1391,-0.1433,-0.146,-0.15,-0.1539,-0.1577,-0.1629,-0.1674,-0.1717,-0.1764,-0.1786,-0.1796,-0.1798,-0.1796,-0.1803,-0.1785,-0.1774,-0.1789,-0.1789,-0.1789,-0.1789,-0.1789,-0.1789,-0.1248,-0.1291,-0.1311,-0.1371,-0.1399,-0.1444,-0.1467,-0.1498,-0.1529,-0.1586,-0.1623,-0.1649,-0.169,-0.174,-0.1782,-0.1794,-0.181,-0.1809,-0.1823,-0.1805,-0.1804,-0.1803,-0.1794,-0.1812,-0.1812,-0.1838,-0.1838,-0.1838]},{"header":{"parameterUnit":"m.s-1","parameterCategory":1,"la1":30.2991,"la2":30.254,"lo1":-89.0895,"lo2":-89.0444,"dy":0.0017,"dx":0.0017,"nx":28,"ny":28,"refTime":"2024-02-14T09:00:00:Z","depth":0,"parameterNumber":3,"parameterNumberName":"V-component_of_WINDS"},"data":[0,0,0,0,0,0,0,0,0,0,0,0,0,0,0,0,0,0,0,0,0,0,0,0,0,0,0,0,0,0,0,0,0,0,0,0,0,0,0,0,0,0,0,0,0,0,0,0,0,0,0,0,0,0,0,0,0,0,-2.5675,-2.5676,0,-2.5807,-2.5808,-2.581,-2.5827,-2.5826,-2.5825,-2.5823,-2.5953,-2.5957,-2.5962,0,0,0,0,0,0,0,0,0,0,0,0,0,-2.5432,-2.5437,-2.5675,-2.5676,-2.5678,-2.5807,-2.5808,-2.581,-2.5827,-2.5826,-2.5824,-2.5823,-2.5951,-2.5956,-2.5962,0,0,0,0,0,0,0,0,0,0,0,0,0,-2.5548,-2.5438,-2.5674,-2.5702,-2.5706,-2.5806,-2.5808,-2.5811,-2.5828,-2.5826,-2.5824,-2.5822,-2.5949,-2.5956,-2.5963,-2.6042,0,0,-2.5984,-2.5987,0,0,0,0,0,0,0,0,-2.5542,-2.5557,-2.5696,-2.57,-2.5705,-2.5799,-2.577,-2.5888,-2.5828,-2.5781,-2.5823,-2.5821,-2.5902,-2.5913,-2.5942,-2.6048,-2.6054,-2.5984,-2.5989,-2.5991,-2.5993,0,0,0,0,0,0,0,-2.5534,-2.5551,-2.5727,-2.5698,-2.5704,-2.5706,-2.5721,-2.5793,-2.585,-2.5785,-2.5787,-2.5803,-2.5904,-2.5935,-2.5945,-2.6056,-2.5984,-2.599,-2.5995,-2.5997,-2.6235,-2.6237,0,0,0,0,0,0,-2.5521,-2.5545,-2.5723,-2.5731,-2.5617,-2.5712,-2.5729,-2.577,-2.585,-2.586,-2.5804,-2.5803,-2.5924,-2.5937,-2.5949,-2.6048,-2.5991,-2.5998,-2.6002,-2.6233,-2.6236,-2.6238,0,0,0,0,0,0,-2.5516,-2.5537,-2.5717,-2.5638,-2.5662,-2.5719,-2.5765,-2.5774,-2.5805,-2.5864,-2.5874,-2.5825,-2.5923,-2.594,-2.602,-2.6053,-2.6001,-2.6007,-2.623,-2.6234,-2.6237,-2.6246,0,0,0,0,0,0,-2.5509,-2.5535,-2.5567,-2.5639,-2.5666,-2.5787,-2.5768,-2.5778,-2.5817,-2.5817,-2.5886,-2.5896,-2.5923,-2.6009,-2.6027,-2.6061,-2.6013,-2.6228,-2.6232,-2.6236,-2.6243,-2.6249,-2.6254,0,0,0,0,0,-2.55,-2.5562,-2.5568,-2.559,-2.5707,-2.5789,-2.5804,-2.5835,-2.582,-2.5852,-2.589,-2.5894,-2.6047,-2.6017,-2.6037,-2.6074,-2.6226,-2.6231,-2.6235,-2.624,-2.6248,-2.6254,0,0,0,0,0,0,-2.549,-2.5572,-2.558,-2.5668,-2.5721,-2.5791,-2.5832,-2.5842,-2.59,-2.5897,-2.5932,-2.5947,-2.6025,-2.6058,-2.6024,-2.6156,-2.6135,-2.6144,-2.6131,-2.6139,-2.6145,-2.6134,-2.6018,0,0,0,0,0,-2.5499,-2.556,-2.5628,-2.5699,-2.5726,-2.5774,-2.5811,-2.5831,-2.5887,-2.5909,-2.5953,-2.6006,-2.6066,-2.6105,-2.6163,-2.6248,-2.6263,-2.6283,-2.6289,-2.6294,-2.63,-2.6348,-2.6357,-2.6254,-2.6254,-2.6254,0,0,-2.5515,-2.5568,-2.5604,-2.5698,-2.5742,-2.5803,-2.5793,-2.5858,-2.5903,-2.5918,-2.5997,-2.6032,-2.6093,-2.6176,-2.6214,-2.6205,-2.6333,-2.63,-2.6303,-2.6308,-2.6354,-2.6363,-2.6372,-2.6257,-2.6257,-2.6256,0,0,-2.5577,-2.5624,-2.5689,-2.5734,-2.5801,-2.5834,-2.585,-2.5919,-2.5943,-2.6023,-2.6036,-2.609,-2.6193,-2.6236,-2.6271,-2.6352,-2.6358,-2.637,-2.6399,-2.6445,-2.6453,-2.6461,-2.6489,-2.6498,-2.6377,-2.6377,-2.6377,0,-2.5589,-2.5684,-2.572,-2.5785,-2.5826,-2.5846,-2.591,-2.5951,-2.6034,-2.6061,-2.605,-2.618,-2.6223,-2.6316,-2.6336,-2.6365,-2.6382,-2.6361,-2.645,-2.6457,-2.6465,-2.6492,-2.6502,-2.6378,-2.6378,-2.6378,-2.6378,0,-2.5695,-2.576,-2.5804,-2.5886,-2.5931,-2.5996,-2.604,-2.6082,-2.6099,-2.6132,-2.6213,-2.6266,-2.6335,-2.6359,-2.6375,-2.6455,-2.6447,-2.6443,-2.6422,-2.6475,-2.6501,-2.6512,-2.638,-2.6379,-2.6379,-2.6379,0,0,-2.5751,-2.5855,-2.587,-2.5908,-2.5985,-2.6035,-2.6101,-2.6171,-2.6206,-2.6263,-2.6317,-2.6405,-2.6402,-2.6442,-2.6464,-2.6504,-2.6564,-2.6495,-2.6497,-2.6505,-2.6655,-2.6656,-2.6668,-2.6569,-2.6571,-2.6573,-2.6649,0,-2.5821,-2.5941,-2.5976,-2.6075,-2.6136,-2.6157,-2.6214,-2.6266,-2.63,-2.6355,-2.6391,-2.6452,-2.6444,-2.6468,-2.651,-2.6548,-2.6594,-2.6543,-2.6618,-2.6621,-2.6601,-2.6682,-2.6684,-2.6753,-2.666,-2.6661,-2.6663,0,-2.5918,-2.598,-2.6086,-2.6157,-2.6184,-2.6234,-2.6302,-2.6355,-2.6416,-2.6437,-2.6483,-2.6502,-2.6569,-2.6546,-2.6639,-2.6604,-2.6637,-2.6661,-2.6664,-2.6671,-2.6643,-2.6689,-2.6776,-2.6785,-2.6679,-2.6678,-2.6677,0,-2.5948,-2.6057,-2.6135,-2.6167,-2.6252,-2.6287,-2.6323,-2.6382,-2.6423,-2.6482,-2.6508,-2.6574,-2.6609,-2.6658,-2.6693,-2.6674,-2.6783,-2.6763,-2.6801,-2.68,-2.6821,-2.6819,-2.6913,-2.6845,-2.6845,-2.6845,-2.6845,0,-2.6021,-2.6085,-2.615,-2.6197,-2.6269,-2.6309,-2.6379,-2.6416,-2.6469,-2.6523,-2.6545,-2.6594,-2.6638,-2.6694,-2.6722,-2.6794,-2.681,-2.6828,-2.6834,-2.6825,-2.6823,-2.6846,-2.6841,-2.6848,-2.6847,-2.6847,-2.6846,0,-2.6065,-2.6111,-2.6197,-2.6272,-2.6292,-2.6342,-2.6405,-2.6451,-2.6487,-2.6555,-2.6573,-2.6628,-2.6694,-2.6735,-2.6819,-2.6837,-2.6917,-2.6922,-2.6897,-2.69,-2.6935,-2.693,-2.7045,-2.7062,-2.6985,-2.6985,-2.6986,0,-2.6108,-2.6158,-2.624,-2.6279,-2.6317,-2.6379,-2.6421,-2.6463,-2.6506,-2.658,-2.6617,-2.6686,-2.6742,-2.6848,-2.6893,-2.6958,-2.6963,-2.7,-2.6973,-2.6962,-2.6962,-2.6958,-2.6963,-2.7003,-2.7004,-2.7004,-2.7005,0,-2.618,-2.6201,-2.6262,-2.6332,-2.6383,-2.6439,-2.6495,-2.6526,-2.6577,-2.6623,-2.6693,-2.6738,-2.6825,-2.6892,-2.6961,-2.6997,-2.7009,-2.7013,-2.7025,-2.7015,-2.6998,-2.7007,-2.6908,-2.701,-2.7009,-2.7009,-2.7008,-2.7008,-2.6224,-2.6269,-2.6334,-2.6402,-2.645,-2.6502,-2.655,-2.6592,-2.6652,-2.6728,-2.6749,-2.6821,-2.6881,-2.6975,-2.7013,-2.7069,-2.7063,-2.7081,-2.7085,-2.7088,-2.7089,-2.6991,-2.7082,-2.7082,-2.7082,-2.7082,-2.7081,0,-2.6295,-2.6339,-2.6401,-2.648,-2.6534,-2.6544,-2.6607,-2.665,-2.6715,-2.6771,-2.6828,-2.6908,-2.6974,-2.7026,-2.7094,-2.7129,-2.7136,-2.7145,-2.7142,-2.715,-2.709,-2.7073,-2.7138,-2.7138,-2.7138,-2.7138,-2.7138,-2.7138,-2.6338,-2.6416,-2.6445,-2.6547,-2.6589,-2.6663,-2.6698,-2.6746,-2.6791,-2.6881,-2.6937,-2.6972,-2.7026,-2.7098,-2.7159,-2.7172,-2.7195,-2.7203,-2.7217,-2.716,-2.7154,-2.7148,-2.7131,-2.7208,-2.7208,-2.7272,-2.7273,-2.7273]}]]